Regional Weather Roundup
Issued by NWS

Home | Current Version | Previous Version | Text Only | Print | Product List | Glossary Off
Versions: 1 2 3 4 5 6 7 8 9 10 11 12 13 14 15 16 17 18 19 20 21 22 23 24 25 26 27

000
ASUS45 KTFX 020110
RWRMT
MONTANA REGIONAL WEATHER ROUNDUP
NATIONAL WEATHER SERVICE GREAT FALLS MT
700 PM MDT SUN MAY 01 2016

NOTE: "FAIR" INDICATES FEW OR NO CLOUDS BELOW 12000 FEET WITH NO
SIGNIFICANT WEATHER AND/OR OBSTRUCTIONS TO VISIBILITY.

MTZ001>007-043-020200-
WEST OF THE DIVIDE

CITY           SKY/WX    TMP DP  RH WIND       PRES   REMARKS
KALISPELL      SUNNY     70  31  23 VRB6      30.10F
MISSOULA       SUNNY     67  39  35 N12       30.10F
BUTTE          SUNNY     58  21  24 SE13      30.17S
MULLAN PASS    SUNNY     54  30  40 CALM      30.18F
ANACONDA         N/A     61  28  29 NE5       30.15S
DEER LODGE       N/A     61  30  31 N10       30.16S
EUREKA           N/A     72  32  23 CALM      30.10F
HAMILTON         N/A     64  36  34 N8        30.09F
LIBBY            N/A     72  36  26 W3        30.09F
PLAINS           N/A     69  39  33 N3        30.10F
$$

MTZ008-052>055-020200-
SOUTHWEST MONTANA

CITY           SKY/WX    TMP DP  RH WIND       PRES   REMARKS
BOZEMAN        SUNNY     61  31  32 E9        30.15F
DILLON         SUNNY     60  27  28 N8        30.14F
ENNIS          SUNNY     57  30  35 NW16      30.20F
TWIN BRIDGES     N/A     61  26  26 N14       30.11F
$$

MTZ009-010-012-014-046-048-049-054-020200-
EAST SLOPES AND CENTRAL MONTANA

CITY           SKY/WX    TMP DP  RH WIND       PRES   REMARKS
CUT BANK       SUNNY     61  32  33 E6        30.19S
GREAT FALLS    SUNNY     62  32  32 NE8       30.18F
HELENA         SUNNY     65  33  30 N9        30.15F
CHOTEAU          N/A     59  30  33 CALM      30.20F
CONRAD           N/A     62  33  33 E3        30.20S
$$

MTZ011-013-016-021-045-047-050-051-020200-
NORTH CENTRAL MONTANA

CITY           SKY/WX    TMP DP  RH WIND       PRES   REMARKS
HAVRE          SUNNY     65  31  28 CALM      30.18F
LEWISTOWN      SUNNY     61  31  32 E5        30.20F
N BAR RANCH      N/A     55  28  35 E8        30.24S
CHINOOK          N/A     66  34  30 NW6       30.17F
$$

MTZ017>020-022>027-061-062-020200-
NORTHEAST MONTANA

CITY           SKY/WX    TMP DP  RH WIND       PRES   REMARKS
GLASGOW        SUNNY     64  33  31 W8        30.17F
JORDAN           N/A     63  28  26 SW3       30.20F
SIDNEY         SUNNY     64  27  24 W3        30.17F
WOLF POINT     SUNNY     66  31  27 W9        30.16F
PLENTYWOOD       N/A     66  28  24 W6        30.13S
POPLAR           N/A     66  30  26 W12       30.16F
SCOBEY           N/A     66  28  24 W10       30.13F
$$

MTZ028>42-056>058-020200-
SOUTHCENTRAL AND SOUTHEAST MONTANA

CITY           SKY/WX    TMP DP  RH WIND       PRES   REMARKS
BAKER          SUNNY     59  29  31 NW9       30.21F
BILLINGS       MOSUNNY   59  30  33 NE13      30.21S
LIVINGSTON     SUNNY     56  28  34 E18       30.18S
MILES CITY     SUNNY     62  28  27 CALM      30.21F
EKALAKA          N/A     56  27  33 N6        30.18F
FORSYTH          N/A     61  28  29 E5        30.21F
LAUREL           N/A     59  30  33 NE5       30.18F
ROUNDUP          N/A     60  29  31 CALM      30.11F
$$

REGIONAL REPORTS...DAKOTAS

CITY           SKY/WX    TMP DP  RH WIND       PRES   REMARKS
WILLISTON      SUNNY     65  31  28 W3        30.14F
MINOT          CLEAR     65  24  21 NW3       30.13F
DICKINSON      CLEAR     59  27  29 NW10      30.15F
BEACH            N/A     59  27  29 NW9       30.21F
CROSBY           N/A     64  25  22 SW6       30.13F
WATFORD CITY     N/A     63  28  27 NW7       30.16F
BISMARCK       CLEAR     62  29  28 N8        30.17F
GRAND FORKS    CLEAR     63  27  25 W3        30.13F
FARGO          CLEAR     64  27  24 N5        30.12F
BUFFALO SD       N/A     60  28  29 N10       30.14F
RAPID CITY     CLEAR     54  31  41 N10       30.21S
$$

REGIONAL REPORTS...WYOMING/IDAHO/WASHINGTON

CITY           SKY/WX    TMP DP  RH WIND       PRES   REMARKS
GILLETTE       SUNNY     53  28  38 N7        30.22S
SHERIDAN       SUNNY     58  25  28 E3        30.20F
BUFFALO WY       N/A    N/A N/A N/A MISG      30.23S
CODY           CLOUDY    54  25  32 E8        30.19F
YELLOWSTONE LA   N/A     45  12  26 CALM      30.25S
IDAHO FALLS    SUNNY     65  20  17 N9        30.08F
SALMON         SUNNY     64  32  29 N6        30.06F
BOISE          SUNNY     70  39  32 N10G16    30.01F
SPOKANE          N/A     72  34  24 VRB5      30.06F
$$

REGIONAL REPORTS...ALBERTA

CITY           SKY/WX    TMP DP  RH WIND       PRES   REMARKS
EDMONTON       SUNNY     75  39  27 W3        30.05F
CALGARY        PTSUNNY   68  25  19 E6        30.14F
LETHBRIDGE     MOSUNNY   68  32  26 VRB2      30.14F
MEDICINE HAT   CLOUDY    68  36  30 W10       30.13F
WATERTON GATE    N/A     63  30  29 E8          N/A
MILK RIVER       N/A     63  34  34 S9          N/A
ONEFOUR          N/A     63  30  29 SW6         N/A
$$

REGIONAL REPORTS...SASKATCHEWAN

CITY           SKY/WX    TMP DP  RH WIND       PRES   REMARKS
SWIFT CURRENT  SUNNY     64  34  32 W14G20    30.12F
REGINA         PTSUNNY   66  32  28 NW14G21   30.07F
SASKATOON      PTSUNNY   68  30  24 NW13      30.05F
CYPRESS HILLS    N/A     59  30  33 W5          N/A
VAL MARIE        N/A     64  27  24 W9          N/A
ROCKGLEN         N/A     63  30  29 W10         N/A
ASSINIBOIA       N/A     72  34  25 W13         N/A
$$




USA.gov is the U.S. government's official web portal to all federal, state and local government web resources and services.